Simultaneous Nadir Overpasses (SNOs) Predictions

Prediction of SNOs between AQUA and LANDSAT-8 Satellite Orbit:

Table of predicted SNOs for the next 14.0 days since TLE Epoch: 5/26/2023
Index Date (AQUA) Time (AQUA) Lat,Lon (AQUA) SZA (AQUA ) Date (LANDSAT-8) Time (LANDSAT-8) Lat,Lon (LANDSAT-8) SZA (LANDSAT-8 ) Distance(km) Time Diff (sec)
1 06/08/2023 20:58:48 -71.65, 46.72 131.32 06/08/2023 20:57:42 -71.66, 44.21 131.32 87.88 66
2 06/08/2023 21:48:13 71.62,-145.58 48.65 06/08/2023 21:47:08 71.61,-148.23 48.63 92.99 65
3 06/08/2023 22:37:40 -71.81, 21.75 131.18 06/08/2023 22:36:32 -71.83, 19.77 131.16 68.84 68
4 06/08/2023 23:27:05 71.78,-170.55 48.80 06/08/2023 23:25:58 71.77,-172.67 48.79 73.84 67
5 06/09/2023 00:16:32 -71.96, -3.22 131.03 06/09/2023 00:15:23 -71.94, -4.76 131.06 53.16 69
6 06/09/2023 01:05:57 71.94, 164.47 48.94 06/09/2023 01:04:48 71.94, 162.89 48.94 54.71 69
7 06/09/2023 01:55:23 -72.07, -28.11 130.93 06/09/2023 01:54:13 -72.10, -29.20 130.90 37.50 70
8 06/09/2023 02:44:48 72.04, 139.59 49.04 06/09/2023 02:43:39 72.05, 138.36 49.05 42.23 69



Historial Predications of SNOs between AQUA and LANDSAT-8
